sat.trackr.live / text

‹ back to catalog

STARLINK-3680

NORAD 51969 · 2022-025P

PAYLOAD ACTIVE UNKNOWN

§ Identity

Operator
Country
US
Launch date
2022-03-09
Launch site
AFETR
Launch vehicle
Mass (kg)
RCS (m²)

Purposes: comms

External: N2YO · Heavens-Above · Gunter

§ Orbital elements

Epoch: 2026-05-25T02:41:29.950080Z

Period
94.01 min
Inclination
53.1597°
Eccentricity
0.0001144
Mean motion
15.31720295 rev/d
Perigee alt
469.9 km
Apogee alt
471.5 km
Semi-major
6,848.8 km
B*
1.6574e-4
RAAN
28.8849°
Arg perigee
111.0258°
Mean anomaly
249.0865°
Rev number
23,271

§ Raw data

STARLINK-36801 51969U 22025P   26145.11215220  .00004785  00000+0  16574-3 0  99922 51969  53.1597  28.8849 0001144 111.0258 249.0865 15.31720295232713

JSON: /api/v1/satellites/51969 · /tle

For live sub-satellite position, see the globe view (requires WebGL).

§ Visibility from observer

Set your observer location to see the next 7 days of passes ≥ 10°. The values pass through the URL so the page stays shareable.

No JS? Fill the form by hand. The geolocation button needs JavaScript.